CW2551 Weather Reports


time (UTC)temp
C
wind
direction
speed
KPH
gust
KPH
rain 1hr
cm
rain 24hr
cm
rain mn
cm
humidity
%
barometer
mb
20210723162605 19 311 1.6 4.8 0.00 0.00 0.00 48 1020.5
20210723162105 19 310 0.0 0.0 0.00 0.00 0.00 48 1020.7
20210723162015 18 310 0.0 0.0 0.00 0.00 0.00 53 1020.6
20210723161605 18 310 0.0 0.0 0.00 0.00 0.00 53 1020.6
20210723161105 18 309 1.6 3.2 0.00 0.00 0.00 50 1020.7
20210723161015 18 318 0.0 3.2 0.00 0.00 0.00 47 1020.7
20210723160605 18 318 0.0 3.2 0.00 0.00 0.00 47 1020.7
20210723160105 18 318 1.6 4.8 0.00 0.00 0.00 46 1020.7
20210723160015 18 317 0.0 3.2 0.00 0.00 0.00 51 1020.7
20210723155605 18 317 0.0 3.2 0.00 0.00 0.00 51 1020.7
20210723155105 17 313 0.0 0.0 0.00 0.00 0.00 51 1020.8
20210723155015 17 313 0.0 0.0 0.00 0.00 0.00 52 1020.6
20210723154605 17 313 0.0 0.0 0.00 0.00 0.00 52 1020.6
20210723154105 17 314 0.0 0.0 0.00 0.00 0.00 54 1020.6
20210723154015 17 314 0.0 0.0 0.00 0.00 0.00 53 1020.7
20210723153606 17 314 0.0 0.0 0.00 0.00 0.00 53 1020.7
20210723153105 16 314 0.0 0.0 0.00 0.00 0.00 57 1020.6
20210723153014 16 314 0.0 0.0 0.00 0.00 0.00 54 1020.6
20210723152605 16 314 0.0 0.0 0.00 0.00 0.00 54 1020.6
20210723152106 16 315 0.0 0.0 0.00 0.00 0.00 52 1020.6
20210723152015 16 315 0.0 0.0 0.00 0.00 0.00 56 1020.7
20210723151605 16 315 0.0 0.0 0.00 0.00 0.00 56 1020.7
20210723151105 16 315 0.0 0.0 0.00 0.00 0.00 52 1020.7
20210723151016 16 315 0.0 0.0 0.00 0.00 0.00 55 1020.7
20210723150605 16 315 0.0 0.0 0.00 0.00 0.00 55 1020.7
20210723150106 15 315 0.0 0.0 0.00 0.00 0.00 55 1020.7
20210723150016 15 315 0.0 0.0 0.00 0.00 0.00 56 1020.7
20210723145605 15 315 0.0 0.0 0.00 0.00 0.00 56 1020.7
20210723145105 15 315 0.0 0.0 0.00 0.00 0.00 58 1020.6
20210723145015 15 315 0.0 0.0 0.00 0.00 0.00 56 1020.7
20210723144606 15 315 0.0 0.0 0.00 0.00 0.00 56 1020.7
20210723144105 15 315 0.0 0.0 0.00 0.00 0.00 56 1020.6
20210723144015 14 315 0.0 0.0 0.00 0.00 0.00 57 1020.5
20210723143605 14 315 0.0 0.0 0.00 0.00 0.00 57 1020.5
20210723143105 13 315 0.0 0.0 0.00 0.00 0.00 58 1020.4
20210723143014 13 314 0.0 0.0 0.00 0.00 0.00 62 1020.4
20210723142605 13 314 0.0 0.0 0.00 0.00 0.00 62 1020.4
20210723142105 13 314 0.0 0.0 0.00 0.00 0.00 63 1020.5
20210723142014 12 327 0.0 1.6 0.00 0.00 0.00 67 1020.5
20210723141604 12 327 0.0 1.6 0.00 0.00 0.00 67 1020.5
20210723141105 12 330 0.0 0.0 0.00 0.00 0.00 70 1020.5
20210723141015 12 330 0.0 0.0 0.00 0.00 0.00 71 1020.5
20210723140605 12 330 0.0 0.0 0.00 0.00 0.00 71 1020.5
20210723140104 11 330 0.0 0.0 0.00 0.00 0.00 72 1020.4
20210723140014 11 330 0.0 0.0 0.00 0.00 0.00 73 1020.3
20210723135605 11 330 0.0 0.0 0.00 0.00 0.00 73 1020.3
20210723135105 11 330 0.0 0.0 0.00 0.00 0.00 75 1020.3
20210723135014 10 330 0.0 0.0 0.00 0.00 0.00 74 1020.3
20210723134605 10 330 0.0 0.0 0.00 0.00 0.00 74 1020.3
20210723134105 10 330 0.0 0.0 0.00 0.00 0.00 76 1020.3
20210723134014 10 330 0.0 0.0 0.00 0.00 0.00 77 1020.2
20210723133605 10 330 0.0 0.0 0.00 0.00 0.00 77 1020.2
20210723133105 10 330 0.0 0.0 0.00 0.00 0.00 75 1020.1
20210723133014 10 330 0.0 0.0 0.00 0.00 0.00 76 1020.0
20210723132605 10 330 0.0 0.0 0.00 0.00 0.00 76 1020.0
20210723132105 10 330 0.0 0.0 0.00 0.00 0.00 76 1020.0
20210723132014 10 330 0.0 0.0 0.00 0.00 0.00 75 1019.9
20210723131605 10 330 0.0 0.0 0.00 0.00 0.00 75 1019.9
20210723131105 10 330 0.0 0.0 0.00 0.00 0.00 76 1019.8
20210723131014 9 330 0.0 0.0 0.00 0.00 0.00 76 1019.9
20210723130606 9 330 0.0 0.0 0.00 0.00 0.00 76 1019.9
20210723130105 9 330 0.0 0.0 0.00 0.00 0.00 74 1019.9
20210723130014 10 330 0.0 0.0 0.00 0.00 0.00 74 1019.8
20210723125605 10 330 0.0 0.0 0.00 0.00 0.00 74 1019.8
20210723125105 10 330 0.0 0.0 0.00 0.00 0.00 75 1019.9
20210723125014 9 330 0.0 0.0 0.00 0.00 0.00 75 1019.9
20210723124605 9 330 0.0 0.0 0.00 0.00 0.00 75 1019.9
20210723124105 9 330 0.0 0.0 0.00 0.00 0.00 73 1019.9
20210723124014 10 330 0.0 0.0 0.00 0.00 0.00 73 1019.8
20210723123605 10 330 0.0 0.0 0.00 0.00 0.00 73 1019.8
20210723123105 10 330 0.0 0.0 0.00 0.00 0.00 73 1019.7
20210723123014 10 330 0.0 0.0 0.00 0.00 0.00 72 1019.8
20210723122605 10 330 0.0 0.0 0.00 0.00 0.00 72 1019.8
20210723122105 10 330 0.0 0.0 0.00 0.00 0.00 72 1019.7
20210723122014 10 330 0.0 0.0 0.00 0.00 0.00 72 1019.7
20210723121605 10 330 0.0 0.0 0.00 0.00 0.00 72 1019.7
20210723121105 10 330 0.0 0.0 0.00 0.00 0.00 72 1019.8
20210723121014 10 330 0.0 0.0 0.00 0.00 0.00 72 1019.8
20210723120604 10 330 0.0 0.0 0.00 0.00 0.00 72 1019.8
20210723120105 10 330 0.0 0.0 0.00 0.00 0.00 72 1019.7
20210723120014 9 330 0.0 0.0 0.00 0.00 0.00 72 1019.7
20210723115604 9 330 0.0 0.0 0.00 0.00 0.00 72 1019.7
20210723115105 9 330 0.0 0.0 0.00 0.00 0.00 72 1019.6
20210723115013 10 330 0.0 0.0 0.00 0.00 0.00 71 1019.6
20210723114605 10 330 0.0 0.0 0.00 0.00 0.00 71 1019.6
20210723114105 10 330 0.0 0.0 0.00 0.00 0.00 71 1019.6
20210723114014 10 330 0.0 0.0 0.00 0.00 0.00 71 1019.6
20210723113605 10 330 0.0 0.0 0.00 0.00 0.00 71 1019.6
20210723113104 10 330 0.0 0.0 0.00 0.00 0.00 70 1019.6
20210723113013 10 330 0.0 0.0 0.00 0.00 0.00 70 1019.6
20210723112605 10 330 0.0 0.0 0.00 0.00 0.00 70 1019.6
20210723112105 10 330 0.0 0.0 0.00 0.00 0.00 70 1019.5
20210723112015 10 330 0.0 0.0 0.00 0.00 0.00 70 1019.5
20210723111605 10 330 0.0 0.0 0.00 0.00 0.00 70 1019.5
20210723111105 10 330 0.0 0.0 0.00 0.00 0.00 69 1019.4
20210723111014 10 330 0.0 0.0 0.00 0.00 0.00 70 1019.3
20210723110605 10 330 0.0 0.0 0.00 0.00 0.00 70 1019.3
20210723110105 10 330 0.0 0.0 0.00 0.00 0.00 69 1019.4
20210723110013 10 330 0.0 0.0 0.00 0.00 0.00 68 1019.4
20210723105604 10 330 0.0 0.0 0.00 0.00 0.00 68 1019.4
20210723105104 10 330 0.0 0.0 0.00 0.00 0.00 67 1019.3
20210723105013 11 330 0.0 0.0 0.00 0.00 0.00 65 1019.2
20210723104605 11 330 0.0 0.0 0.00 0.00 0.00 65 1019.2
20210723104104 11 330 0.0 0.0 0.00 0.00 0.00 66 1019.1
20210723104014 11 330 0.0 0.0 0.00 0.00 0.00 67 1019.1
20210723103604 11 330 0.0 0.0 0.00 0.00 0.00 67 1019.1
20210723103105 11 330 0.0 0.0 0.00 0.00 0.00 66 1019.0
20210723103014 11 330 0.0 0.0 0.00 0.00 0.00 67 1019.0
20210723102605 11 330 0.0 0.0 0.00 0.00 0.00 67 1019.0
20210723102104 11 330 0.0 0.0 0.00 0.00 0.00 65 1019.0
20210723102014 11 330 0.0 0.0 0.00 0.00 0.00 65 1019.0
20210723101605 11 330 0.0 0.0 0.00 0.00 0.00 65 1019.0
20210723101105 11 330 0.0 0.0 0.00 0.00 0.00 67 1019.0
20210723101014 11 330 0.0 0.0 0.00 0.00 0.00 65 1018.9
20210723100605 11 330 0.0 0.0 0.00 0.00 0.00 65 1018.9
20210723100105 11 330 0.0 0.0 0.00 0.00 0.00 65 1018.9
20210723100016 11 330 0.0 0.0 0.00 0.00 0.00 66 1018.9
20210723095604 11 330 0.0 0.0 0.00 0.00 0.00 66 1018.9
20210723095105 11 330 0.0 0.0 0.00 0.00 0.00 65 1018.9
20210723095014 11 330 0.0 0.0 0.00 0.00 0.00 65 1018.9
20210723094605 11 330 0.0 0.0 0.00 0.00 0.00 65 1018.9
20210723094104 11 330 0.0 0.0 0.00 0.00 0.00 62 1018.9
20210723094014 12 330 0.0 0.0 0.00 0.00 0.00 63 1018.9
20210723093604 12 330 0.0 0.0 0.00 0.00 0.00 63 1018.9
20210723093104 11 330 0.0 0.0 0.00 0.00 0.00 63 1018.9
20210723093014 11 330 0.0 0.0 0.00 0.00 0.00 63 1018.9
20210723092605 11 330 0.0 0.0 0.00 0.00 0.00 63 1018.9
20210723092105 12 330 0.0 0.0 0.00 0.00 0.00 63 1018.8
20210723092014 12 330 0.0 0.0 0.00 0.00 0.00 64 1018.8
20210723091605 12 330 0.0 0.0 0.00 0.00 0.00 64 1018.8
20210723091105 11 330 0.0 0.0 0.00 0.00 0.00 64 1018.8
20210723091014 12 330 0.0 0.0 0.00 0.00 0.00 62 1018.9
20210723090605 12 330 0.0 0.0 0.00 0.00 0.00 62 1018.9
20210723090105 12 330 0.0 0.0 0.00 0.00 0.00 62 1018.9
20210723090013 12 330 0.0 0.0 0.00 0.00 0.00 62 1018.8
20210723085604 12 330 0.0 0.0 0.00 0.00 0.00 62 1018.8
20210723085105 13 330 0.0 0.0 0.00 0.00 0.00 59 1018.8
20210723085014 13 330 0.0 0.0 0.00 0.00 0.00 60 1018.8
20210723084605 13 330 0.0 0.0 0.00 0.00 0.00 60 1018.8
20210723084104 12 329 0.0 0.0 0.00 0.00 0.00 61 1018.7
20210723084015 13 329 0.0 0.0 0.00 0.00 0.00 59 1018.7
20210723083604 13 329 0.0 0.0 0.00 0.00 0.00 59 1018.7
20210723083105 13 329 0.0 0.0 0.00 0.00 0.00 59 1018.7
20210723083014 13 329 0.0 0.0 0.00 0.00 0.00 60 1018.7
20210723082605 13 329 0.0 0.0 0.00 0.00 0.00 60 1018.7
20210723082105 13 329 0.0 0.0 0.00 0.00 0.00 61 1018.7
20210723082014 13 329 0.0 0.0 0.00 0.00 0.00 59 1018.7
20210723081605 13 329 0.0 0.0 0.00 0.00 0.00 59 1018.7
20210723081105 13 329 0.0 0.0 0.00 0.00 0.00 59 1018.6
20210723081014 13 329 0.0 0.0 0.00 0.00 0.00 59 1018.6
20210723080605 13 329 0.0 0.0 0.00 0.00 0.00 59 1018.6
20210723080105 13 329 0.0 0.0 0.00 0.00 0.00 58 1018.6
20210723080014 13 329 0.0 0.0 0.00 0.00 0.00 59 1018.6
20210723075605 13 329 0.0 0.0 0.00 0.00 0.00 59 1018.6
20210723075104 13 329 0.0 0.0 0.00 0.00 0.00 58 1018.6
20210723075014 14 329 0.0 0.0 0.00 0.00 0.00 55 1018.5
20210723074605 14 329 0.0 0.0 0.00 0.00 0.00 55 1018.5
20210723074105 14 329 0.0 0.0 0.00 0.00 0.00 54 1018.5
20210723074014 15 329 0.0 0.0 0.00 0.00 0.00 53 1018.5
20210723073604 15 329 0.0 0.0 0.00 0.00 0.00 53 1018.5
20210723073104 15 329 0.0 0.0 0.00 0.00 0.00 51 1018.4
20210723073013 15 329 0.0 0.0 0.00 0.00 0.00 51 1018.4
20210723072604 15 329 0.0 0.0 0.00 0.00 0.00 51 1018.4
20210723072104 15 329 0.0 0.0 0.00 0.00 0.00 51 1018.5
20210723072014 16 329 0.0 0.0 0.00 0.00 0.00 49 1018.4
20210723071605 16 329 0.0 0.0 0.00 0.00 0.00 49 1018.4
20210723071109 16 329 0.0 0.0 0.00 0.00 0.00 46 1018.4
20210723071014 16 329 0.0 0.0 0.00 0.00 0.00 45 1018.3
20210723070605 16 329 0.0 0.0 0.00 0.00 0.00 45 1018.3
20210723070105 16 329 0.0 0.0 0.00 0.00 0.00 45 1018.3
20210723070014 16 329 0.0 0.0 0.00 0.00 0.00 46 1018.3
20210723065605 16 329 0.0 0.0 0.00 0.00 0.00 46 1018.3
20210723065104 16 329 0.0 0.0 0.00 0.00 0.00 45 1018.3
20210723065014 16 329 0.0 0.0 0.00 0.00 0.00 46 1018.3
20210723064605 16 329 0.0 0.0 0.00 0.00 0.00 46 1018.3
20210723064104 16 329 0.0 0.0 0.00 0.00 0.00 47 1018.2
20210723064014 16 329 0.0 0.0 0.00 0.00 0.00 47 1018.2
20210723063605 16 329 0.0 0.0 0.00 0.00 0.00 47 1018.2
20210723063105 16 329 0.0 0.0 0.00 0.00 0.00 48 1018.2
20210723063013 16 329 0.0 0.0 0.00 0.00 0.00 48 1018.1
20210723062605 16 329 0.0 0.0 0.00 0.00 0.00 48 1018.1
20210723062105 16 329 0.0 0.0 0.00 0.00 0.00 46 1018.1
20210723062014 16 329 0.0 0.0 0.00 0.00 0.00 46 1018.1
20210723061605 16 329 0.0 0.0 0.00 0.00 0.00 46 1018.1
20210723061105 17 329 0.0 0.0 0.00 0.00 0.00 47 1018.1
20210723061014 17 329 0.0 0.0 0.00 0.00 0.00 44 1018.0
20210723060604 17 329 0.0 0.0 0.00 0.00 0.00 44 1018.0
20210723060105 17 329 0.0 0.0 0.00 0.00 0.00 44 1017.9
20210723060014 18 329 0.0 0.0 0.00 0.00 0.00 40 1017.9
20210723055606 18 329 0.0 0.0 0.00 0.00 0.00 40 1017.9
20210723055105 18 329 0.0 0.0 0.00 0.00 0.00 40 1017.6
20210723055014 18 329 0.0 0.0 0.00 0.00 0.00 41 1017.5
20210723054605 18 329 0.0 0.0 0.00 0.00 0.00 41 1017.5
20210723054105 18 329 0.0 0.0 0.00 0.00 0.00 42 1017.5
20210723054014 17 329 0.0 0.0 0.00 0.00 0.00 42 1017.4
20210723053604 17 329 0.0 0.0 0.00 0.00 0.00 42 1017.4
20210723053105 17 330 0.0 0.0 0.00 0.00 0.00 45 1017.4
20210723053014 17 330 0.0 0.0 0.00 0.00 0.00 44 1017.4
20210723052605 17 330 0.0 0.0 0.00 0.00 0.00 44 1017.4
20210723052105 17 330 0.0 0.0 0.00 0.00 0.00 45 1017.4
20210723052013 17 330 0.0 0.0 0.00 0.00 0.00 44 1017.2
20210723051605 17 330 0.0 0.0 0.00 0.00 0.00 44 1017.2
20210723051104 18 330 0.0 0.0 0.00 0.00 0.00 44 1017.1
20210723051015 18 330 0.0 0.0 0.00 0.00 0.00 44 1017.0
20210723050604 18 330 0.0 0.0 0.00 0.00 0.00 44 1017.0
20210723050105 19 330 0.0 0.0 0.00 0.00 0.00 41 1016.9
20210723050014 19 330 0.0 0.0 0.00 0.00 0.00 40 1016.9
20210723045605 19 330 0.0 0.0 0.00 0.00 0.00 40 1016.9
20210723045105 20 330 0.0 0.0 0.00 0.00 0.00 40 1016.9
20210723045014 20 330 0.0 0.0 0.00 0.00 0.00 41 1016.9
20210723044605 20 330 0.0 0.0 0.00 0.00 0.00 41 1016.9
20210723044105 20 330 0.0 0.0 0.00 0.00 0.00 39 1016.8
20210723044014 21 330 0.0 0.0 0.00 0.00 0.00 36 1016.7
20210723043605 21 330 0.0 0.0 0.00 0.00 0.00 36 1016.7
20210723043105 22 330 0.0 0.0 0.00 0.00 0.00 34 1016.7
20210723043014 22 331 0.0 0.0 0.00 0.00 0.00 33 1016.6
20210723042604 22 331 0.0 0.0 0.00 0.00 0.00 33 1016.6
20210723042105 23 331 0.0 0.0 0.00 0.00 0.00 31 1016.5
20210723042014 23 331 0.0 3.2 0.00 0.00 0.00 31 1016.4
20210723041605 23 331 0.0 3.2 0.00 0.00 0.00 31 1016.4
20210723041105 23 339 0.0 1.6 0.00 0.00 0.00 29 1016.3
20210723041014 23 337 1.6 4.8 0.00 0.00 0.00 30 1016.2
20210723040605 23 337 1.6 4.8 0.00 0.00 0.00 30 1016.2
20210723040105 23 327 0.0 0.0 0.00 0.00 0.00 30 1016.1
20210723040014 23 327 0.0 0.0 0.00 0.00 0.00 30 1016.1
20210723035605 23 327 0.0 0.0 0.00 0.00 0.00 30 1016.1
20210723035014 25 323 1.6 4.8 0.00 0.00 0.00 27 1016.0
20210723034605 25 323 1.6 4.8 0.00 0.00 0.00 27 1016.0
20210723034105 25 321 1.6 8.0 0.00 0.00 0.00 27 1015.9
20210723034015 25 310 0.0 1.6 0.00 0.00 0.00 26 1015.8
20210723033605 25 310 0.0 1.6 0.00 0.00 0.00 26 1015.8
20210723033105 25 315 1.6 4.8 0.00 0.00 0.00 25 1015.7
20210723033015 25 308 0.0 4.8 0.00 0.00 0.00 25 1015.7
20210723032604 25 308 0.0 4.8 0.00 0.00 0.00 25 1015.7
20210723032104 26 323 3.2 8.0 0.00 0.00 0.00 25 1015.5
20210723032015 26 327 1.6 12.9 0.00 0.00 0.00 25 1015.4
20210723031605 26 327 1.6 12.9 0.00 0.00 0.00 25 1015.4
20210723031105 26 2 1.6 8.0 0.00 0.00 0.00 24 1015.4
20210723031015 26 9 8.0 14.5 0.00 0.00 0.00 24 1015.3
20210723030605 26 9 8.0 14.5 0.00 0.00 0.00 24 1015.3
20210723030105 27 353 4.8 19.3 0.00 0.00 0.00 24 1015.3
20210723030015 27 359 8.0 19.3 0.00 0.00 0.00 23 1015.2
20210723025605 27 359 8.0 19.3 0.00 0.00 0.00 23 1015.2
20210723025105 27 323 4.8 14.5 0.00 0.00 0.00 23 1015.1
20210723025015 27 340 1.6 9.7 0.00 0.00 0.00 22 1014.9
20210723024605 27 340 1.6 9.7 0.00 0.00 0.00 22 1014.9
20210723024105 27 358 3.2 14.5 0.00 0.00 0.00 23 1014.9
20210723024015 27 328 3.2 12.9 0.00 0.00 0.00 22 1014.8
20210723023605 27 328 3.2 12.9 0.00 0.00 0.00 22 1014.8
20210723023104 28 333 4.8 19.3 0.00 0.00 0.00 22 1014.8
20210723023015 28 344 9.7 19.3 0.00 0.00 0.00 21 1014.6
20210723022605 28 344 9.7 19.3 0.00 0.00 0.00 21 1014.6
20210723022104 28 334 4.8 19.3 0.00 0.00 0.00 22 1014.7
20210723022015 28 2 9.7 19.3 0.00 0.00 0.00 22 1014.5
20210723021605 28 2 9.7 19.3 0.00 0.00 0.00 22 1014.5
20210723021105 28 0 8.0 20.9 0.00 0.00 0.00 23 1014.5
20210723021015 28 349 8.0 20.9 0.00 0.00 0.00 23 1014.5
20210723020605 28 349 8.0 20.9 0.00 0.00 0.00 23 1014.5
20210723020105 29 329 3.2 19.3 0.00 0.00 0.00 23 1014.4
20210723020014 29 346 6.4 16.1 0.00 0.00 0.00 23 1014.3
20210723015605 29 346 6.4 16.1 0.00 0.00 0.00 23 1014.3
20210723015104 29 328 6.4 16.1 0.00 0.00 0.00 23 1014.1
20210723015015 29 345 8.0 14.5 0.00 0.00 0.00 23 1014.1
20210723014605 29 345 8.0 14.5 0.00 0.00 0.00 23 1014.1
20210723014105 30 339 6.4 14.5 0.00 0.00 0.00 24 1014.0
20210723014016 30 345 6.4 12.9 0.00 0.00 0.00 22 1014.0
20210723013605 30 345 6.4 12.9 0.00 0.00 0.00 22 1014.0
20210723013105 30 288 1.6 16.1 0.00 0.00 0.00 23 1013.9
20210723013015 30 336 4.8 14.5 0.00 0.00 0.00 23 1013.9
20210723012604 30 336 4.8 14.5 0.00 0.00 0.00 23 1013.9
20210723012105 30 250 3.2 19.3 0.00 0.00 0.00 25 1013.9
20210723012015 30 12 3.2 14.5 0.00 0.00 0.00 22 1013.8
20210723011605 30 12 3.2 14.5 0.00 0.00 0.00 22 1013.8
20210723011105 30 340 6.4 20.9 0.00 0.00 0.00 22 1013.9
20210723011015 30 329 8.0 19.3 0.00 0.00 0.00 22 1013.8
20210723010605 30 329 8.0 19.3 0.00 0.00 0.00 22 1013.8
20210723010105 30 351 8.0 19.3 0.00 0.00 0.00 22 1013.9
20210723010015 30 0 4.8 14.5 0.00 0.00 0.00 24 1013.7
20210723005605 30 0 4.8 14.5 0.00 0.00 0.00 24 1013.7
20210723005105 31 351 8.0 16.1 0.00 0.00 0.00 22 1013.7
20210723005015 30 2 1.6 9.7 0.00 0.00 0.00 25 1013.7
20210723004605 30 2 1.6 9.7 0.00 0.00 0.00 25 1013.7
20210723004105 31 263 6.4 16.1 0.00 0.00 0.00 23 1013.7
20210723004015 31 296 3.2 12.9 0.00 0.00 0.00 24 1013.7
20210723003605 31 296 3.2 12.9 0.00 0.00 0.00 24 1013.7
20210723003105 31 295 6.4 16.1 0.00 0.00 0.00 23 1013.7
20210723003016 31 301 4.8 14.5 0.00 0.00 0.00 23 1013.7
20210723002605 31 301 4.8 14.5 0.00 0.00 0.00 23 1013.7
20210723002104 31 314 3.2 12.9 0.00 0.00 0.00 24 1013.6
20210723002015 31 304 4.8 11.3 0.00 0.00 0.00 24 1013.7
20210723001604 31 304 4.8 11.3 0.00 0.00 0.00 24 1013.7
20210723001105 31 298 8.0 16.1 0.00 0.00 0.00 23 1013.7
20210723001015 31 344 8.0 16.1 0.00 0.00 0.00 24 1013.5
20210723000605 31 344 8.0 16.1 0.00 0.00 0.00 24 1013.5
20210723000105 31 339 6.4 19.3 0.00 0.00 0.00 24 1013.5
20210723000015 31 301 8.0 20.9 0.00 0.00 0.00 24 1013.6
20210722235605 31 301 8.0 20.9 0.00 0.00 0.00 24 1013.6
20210722235104 32 294 8.0 19.3 0.00 0.00 0.00 24 1013.6
20210722235015 31 353 8.0 19.3 0.00 0.00 0.00 24 1013.6
20210722234605 31 353 8.0 19.3 0.00 0.00 0.00 24 1013.6
20210722234105 32 339 6.4 12.9 0.00 0.00 0.00 25 1013.6
20210722234015 31 304 4.8 14.5 0.00 0.00 0.00 27 1013.7
20210722233604 31 304 4.8 14.5 0.00 0.00 0.00 27 1013.7
20210722233104 32 341 4.8 14.5 0.00 0.00 0.00 25 1013.6
20210722233015 32 343 3.2 14.5 0.00 0.00 0.00 27 1013.7
20210722232604 32 343 3.2 14.5 0.00 0.00 0.00 27 1013.7
20210722232106 31 358 8.0 19.3 0.00 0.00 0.00 25 1013.7
20210722232016 31 309 4.8 19.3 0.00 0.00 0.00 26 1013.7
20210722231605 31 309 4.8 19.3 0.00 0.00 0.00 26 1013.7
20210722231105 31 340 6.4 19.3 0.00 0.00 0.00 25 1013.8
20210722231015 31 302 4.8 14.5 0.00 0.00 0.00 27 1013.7
20210722230605 31 302 4.8 14.5 0.00 0.00 0.00 27 1013.7
20210722230104 31 320 3.2 16.1 0.00 0.00 0.00 26 1013.8
20210722230015 31 338 9.7 14.5 0.00 0.00 0.00 25 1013.9
20210722225605 31 338 9.7 14.5 0.00 0.00 0.00 25 1013.9
20210722225105 31 4 4.8 19.3 0.00 0.00 0.00 28 1013.8
20210722225015 31 5 9.7 19.3 0.00 0.00 0.00 27 1013.9
20210722224605 31 5 9.7 19.3 0.00 0.00 0.00 27 1013.9
20210722224104 31 355 8.0 19.3 0.00 0.00 0.00 27 1014.0
20210722224015 31 17 8.0 14.5 0.00 0.00 0.00 27 1014.0
20210722223604 31 17 8.0 14.5 0.00 0.00 0.00 27 1014.0
20210722223105 31 51 6.4 14.5 0.00 0.00 0.00 25 1014.0
20210722223015 31 51 6.4 14.5 0.00 0.00 0.00 27 1014.1
20210722222605 31 51 6.4 14.5 0.00 0.00 0.00 27 1014.1
20210722222104 31 38 4.8 14.5 0.00 0.00 0.00 26 1014.1
20210722222015 31 63 4.8 16.1 0.00 0.00 0.00 27 1014.2
20210722221605 31 63 4.8 16.1 0.00 0.00 0.00 27 1014.2
20210722221105 31 7 3.2 16.1 0.00 0.00 0.00 28 1014.2
20210722221014 31 11 1.6 4.8 0.00 0.00 0.00 29 1014.2
20210722220604 31 11 1.6 4.8 0.00 0.00 0.00 29 1014.2
20210722220105 30 13 4.8 14.5 0.00 0.00 0.00 28 1014.3
20210722220016 30 351 8.0 14.5 0.00 0.00 0.00 28 1014.3
20210722215605 30 351 8.0 14.5 0.00 0.00 0.00 28 1014.3
20210722215105 30 9 3.2 4.8 0.00 0.00 0.00 29 1014.4
20210722215014 30 9 3.2 12.9 0.00 0.00 0.00 25 1014.4
20210722214606 30 9 3.2 12.9 0.00 0.00 0.00 25 1014.4
20210722214105 30 17 1.6 12.9 0.00 0.00 0.00 29 1014.5
20210722214015 30 17 6.4 16.1 0.00 0.00 0.00 28 1014.5
20210722213605 30 17 6.4 16.1 0.00 0.00 0.00 28 1014.5
20210722213105 30 5 3.2 14.5 0.00 0.00 0.00 27 1014.5
20210722213015 28 356 1.6 12.9 0.00 0.00 0.00 31 1014.5
20210722212606 28 356 1.6 12.9 0.00 0.00 0.00 31 1014.5
20210722212105 29 357 4.8 14.5 0.00 0.00 0.00 28 1014.7
20210722212015 28 13 1.6 11.3 0.00 0.00 0.00 28 1014.6
20210722211605 28 13 1.6 11.3 0.00 0.00 0.00 28 1014.6
20210722211105 29 13 6.4 16.1 0.00 0.00 0.00 29 1014.7
20210722211015 28 64 3.2 8.0 0.00 0.00 0.00 32 1014.7
20210722210605 28 64 3.2 8.0 0.00 0.00 0.00 32 1014.7
20210722210105 28 64 1.6 4.8 0.00 0.00 0.00 31 1014.8
20210722210024 28 64 3.2 9.7 0.00 0.00 0.00 32 1014.9
20210722205605 28 64 3.2 9.7 0.00 0.00 0.00 32 1014.9
20210722205105 28 67 6.4 12.9 0.00 0.00 0.00 30 1014.9
20210722205015 28 57 1.6 8.0 0.00 0.00 0.00 32 1015.0
20210722204605 28 57 1.6 8.0 0.00 0.00 0.00 32 1015.0
20210722204105 28 58 3.2 9.7 0.00 0.00 0.00 31 1015.1
20210722204015 28 59 3.2 9.7 0.00 0.00 0.00 32 1015.2
20210722203605 28 59 3.2 9.7 0.00 0.00 0.00 32 1015.2
20210722203105 28 62 1.6 4.8 0.00 0.00 0.00 38 1015.2
20210722203015 27 63 1.6 14.5 0.00 0.00 0.00 34 1015.3
20210722202605 27 63 1.6 14.5 0.00 0.00 0.00 34 1015.3
20210722202105 27 74 8.0 12.9 0.00 0.00 0.00 32 1015.3
20210722202015 27 355 3.2 12.9 0.00 0.00 0.00 36 1015.3
20210722201604 27 355 3.2 12.9 0.00 0.00 0.00 36 1015.3
20210722201105 27 17 1.6 8.0 0.00 0.00 0.00 35 1015.3
20210722201015 27 13 1.6 8.0 0.00 0.00 0.00 39 1015.4
20210722200605 27 13 1.6 8.0 0.00 0.00 0.00 39 1015.4
20210722200105 27 20 3.2 8.0 0.00 0.00 0.00 41 1015.6
20210722200015 26 0 1.6 9.7 0.00 0.00 0.00 39 1015.5
20210722195605 26 0 1.6 9.7 0.00 0.00 0.00 39 1015.5
20210722195104 26 351 4.8 12.9 0.00 0.00 0.00 38 1015.7
20210722195015 26 11 4.8 12.9 0.00 0.00 0.00 37 1015.7
20210722194605 26 11 4.8 12.9 0.00 0.00 0.00 37 1015.7
20210722194105 26 17 1.6 4.8 0.00 0.00 0.00 43 1015.7
20210722194015 26 18 3.2 9.7 0.00 0.00 0.00 40 1015.9
20210722193604 26 18 3.2 9.7 0.00 0.00 0.00 40 1015.9
20210722193105 26 39 3.2 8.0 0.00 0.00 0.00 42 1015.9
20210722193015 25 9 4.8 9.7 0.00 0.00 0.00 40 1015.9
20210722192605 25 9 4.8 9.7 0.00 0.00 0.00 40 1015.9
20210722192105 25 355 1.6 4.8 0.00 0.00 0.00 40 1015.9
20210722192015 25 350 3.2 8.0 0.00 0.00 0.00 41 1016.0
20210722191605 25 350 3.2 8.0 0.00 0.00 0.00 41 1016.0
20210722191105 25 5 4.8 8.0 0.00 0.00 0.00 42 1016.0
20210722191016 25 36 3.2 8.0 0.00 0.00 0.00 44 1016.1
20210722190605 25 36 3.2 8.0 0.00 0.00 0.00 44 1016.1
20210722190105 24 342 1.6 9.7 0.00 0.00 0.00 43 1016.1
20210722190015 24 269 1.6 4.8 0.00 0.00 0.00 47 1016.2
20210722185605 24 269 1.6 4.8 0.00 0.00 0.00 47 1016.2
20210722185105 23 265 1.6 4.8 0.00 0.00 0.00 45 1016.2
20210722185015 23 259 0.0 4.8 0.00 0.00 0.00 45 1016.3
20210722184605 23 259 0.0 4.8 0.00 0.00 0.00 45 1016.3
20210722184104 23 342 3.2 4.8 0.00 0.00 0.00 45 1016.3
20210722184015 23 346 1.6 9.7 0.00 0.00 0.00 46 1016.4
20210722183605 23 346 1.6 9.7 0.00 0.00 0.00 46 1016.4
20210722183105 23 347 4.8 9.7 0.00 0.00 0.00 43 1016.3
20210722183015 23 354 3.2 9.7 0.00 0.00 0.00 45 1016.4
20210722182605 23 354 3.2 9.7 0.00 0.00 0.00 45 1016.4
20210722182105 23 12 3.2 8.0 0.00 0.00 0.00 43 1016.4
20210722182014 23 5 3.2 9.7 0.00 0.00 0.00 50 1016.4
20210722181605 23 5 3.2 9.7 0.00 0.00 0.00 50 1016.4
20210722181105 22 1 1.6 4.8 0.00 0.00 0.00 48 1016.4
20210722181015 22 6 4.8 14.5 0.00 0.00 0.00 46 1016.4
20210722180605 22 6 4.8 14.5 0.00 0.00 0.00 46 1016.4
20210722180105 22 329 3.2 8.0 0.00 0.00 0.00 47 1016.6
20210722180015 22 325 1.6 8.0 0.00 0.00 0.00 51 1016.6
20210722175605 22 325 1.6 8.0 0.00 0.00 0.00 51 1016.6
20210722175105 21 311 0.0 8.0 0.00 0.00 0.00 51 1016.6
20210722175015 21 303 1.6 4.8 0.00 0.00 0.00 49 1016.7
20210722174605 21 303 1.6 4.8 0.00 0.00 0.00 49 1016.7
20210722174105 21 304 3.2 4.8 0.00 0.00 0.00 48 1016.7
20210722174015 21 302 0.0 4.8 0.00 0.00 0.00 50 1016.7
20210722173604 21 302 0.0 4.8 0.00 0.00 0.00 50 1016.7
20210722173105 21 302 0.0 4.8 0.00 0.00 0.00 49 1016.7
20210722173015 21 300 1.6 8.0 0.00 0.00 0.00 49 1016.8
20210722172605 21 300 1.6 8.0 0.00 0.00 0.00 49 1016.8
20210722172104 20 294 0.0 1.6 0.00 0.00 0.00 52 1016.8
20210722172015 20 296 0.0 3.2 0.00 0.00 0.00 52 1016.8
20210722171605 20 296 0.0 3.2 0.00 0.00 0.00 52 1016.8
20210722171105 20 296 0.0 4.8 0.00 0.00 0.00 50 1016.8
20210722171015 19 291 0.0 4.8 0.00 0.00 0.00 53 1016.8
20210722170605 19 291 0.0 4.8 0.00 0.00 0.00 53 1016.8
20210722170105 20 294 0.0 4.8 0.00 0.00 0.00 53 1016.9
20210722170015 20 280 0.0 4.8 0.00 0.00 0.00 52 1016.9
20210722165605 20 280 0.0 4.8 0.00 0.00 0.00 52 1016.9
20210722165104 19 5 0.0 0.0 0.00 0.00 0.00 58 1016.9
20210722165014 18 5 0.0 4.8 0.00 0.00 0.00 54 1017.0
20210722164605 18 5 0.0 4.8 0.00 0.00 0.00 54 1017.0
20210722164105 19 9 0.0 8.0 0.00 0.00 0.00 53 1017.0
20210722164015 19 15 1.6 4.8 0.00 0.00 0.00 54 1016.9
20210722163605 19 15 1.6 4.8 0.00 0.00 0.00 54 1016.9
20210722163105 18 5 3.2 8.0 0.00 0.00 0.00 58 1017.0
20210722163015 18 26 3.2 8.0 0.00 0.00 0.00 55 1017.1